STARLINK-31663, 59576

Orbit data source: Space-Track

STARLINK-31663, 59576 is a payload satellite owned by SpaceX/Seattle (US) in LEO that was launched on Tue, 23 Apr 2024 UTC via an FALCON 9 launch vehicle from the Air Force Eastern Test Range (AFETR). Payload-class satellites include a variety of spacecraft equipped with specific instruments for various scientific and technological missions. These include communications satellites like Starlink; space stations such as the ISS; scientific satellites like the Hubble; Earth observation satellites from companies like Planet Labs, Umbra, and HawkEye 360; GPS; miniature CubeSats for education and research; and military/defense satellites.

Loading next visibility...
Identifier
59576, 2024-076N
Orbit
LEO
Last TLE update
1 day ago
Origin
Manufacturer
SpaceX/Seattle
Mission
Operational spacecraft
Bus & Motor
STARLINK V2M, Unknown motor
Mass
730 kg wet, ~700 kg dry
Launch date (UTC)
2024-04-23 (1 year ago)
Launch vehicle
FALCON 9
Launch site
Air Force Eastern Test Range (AFETR)
Object type
Payload
Rocket body
Debris
Shape & HBR
Unknown
Radar Cross Section
Large (>1 m²)

Expand to show TLE details & history

TLE from 1 day ago
0 STARLINK-31663
1 59576U 24076N   25185.77085404 -.00000643  00000-0 -13840-4 0  9992
2 59576  43.0013 329.3761 0000914 296.6687  63.4071 15.27577762 68581
Epoch: 2025-07-04T18:30Z
TLE epoch observation values (Epoch: 2025-07-04T18:30:01.789Z)
Latitude
Longitude
128.85017°
Altitude
482.551 km
Speed
7.626 km/s
True Right ascension
21h 57m 30s
True Declination
0° 00' 00"
Sunlit
Object was in full shadow at epoch
Visualization orbit readout
Latitude
8.55872°
Longitude
132.53135°
Altitude
481.909 km
Speed
7.627 km/s
Apparent Right ascension
20h 29m 10s
Apparent Declination
-16° 57' 36"
Sunlit
Object is in full shadow
Visualization observer readout
Local Sidereal Time
06:01:07
Azimuth
294.826° NW
Elevation
-50.623°
Doppler factor
1
Orbital elements
Apogee altitude
485.628 km
Perigee altitude
484.373 km
Semi-major axis
6,863.138 km
Eccentricity
0.00009
Inclination
43.0013°
RAAN
329.3761°
Arg. of periapsis
296.6687°
True anomaly
Unknown
Mean anomaly
63.4071°
Eccentric anomaly
Unknown
Mean motion
3.81732 °/min
Orbital period
94.31 mins
BSTAR
-0.00001384
Loading maneuver chart data...
Loading SW <> Apogee altitude chart data...
Loading historical data...
Loading historical data...
Loading historical data...
Loading historical data...
Loading historical data...
Loading historical data...
Loading historical data...

STARLINK-31663 Visibility forecast

Observer location: undefined°, undefined°

Span
Click to sort rows by Start time (UTC) header in descending order
Start Az.
Max El. time (UTC)
Max El. Az.
Max El.
End time (UTC)
End Az.
6 mins2025-07-05 18:31:39.037Z271.187° WNW2025-07-05 18:34:39.037Z194.945° SSW29.947°2025-07-05 18:37:39.037Z142.642° SSE
5 mins2025-07-06 13:07:39.037Z234.35° WSW2025-07-06 13:09:39.037Z130.387° SE42.67°2025-07-06 13:12:39.037Z75.208° E
5 mins2025-07-06 14:46:39.037Z288.03° WNW2025-07-06 14:48:39.037Z5.828° NNE38.613°2025-07-06 14:51:39.037Z71.336° E
5 mins2025-07-06 16:25:39.037Z295.02° NW2025-07-06 16:27:39.037Z6.214° NNE42.705°2025-07-06 16:30:39.037Z94.727° ESE
|